When you browse on this site, cookies collect data to enhance your experience and personalize the content and advertising you see.
Visit our Privacy Policy to learn more. By continuing to use the site, you agree to this use of cookies and data.
  • In Switzerland
  • List of Countries
  • For 7 days
  • Water Temperature
  • Satellite Maps
  • Weather Map
  • Weather Widgets
  • user-avatar
    Login

    Hourly Weather Maun

    Today, 17 November, Saturday

    Time Temperature Precipitation Wind Pressure Humidity
    00:00 +30°C° 0 mm 3 mps 681 mmHg 14%
    01:00 +29°C° 0 mm 4 mps 681 mmHg 15%
    02:00 +29°C° 0 mm 4 mps 681 mmHg 17%
    03:00 +28°C° 0 mm 3 mps 681 mmHg 19%
    04:00 +27°C° 0 mm 3 mps 681 mmHg 21%
    05:00 +26°C° 0 mm 3 mps 681 mmHg 22%
    06:00 +28°C° 0 mm 3 mps 682 mmHg 21%
    07:00 +30°C° 0 mm 3 mps 682 mmHg 19%
    08:00 +31°C° 0 mm 3 mps 683 mmHg 17%
    09:00 +35°C° 0 mm 3 mps 683 mmHg 15%
    10:00 +37°C° 0 mm 3 mps 683 mmHg 14%
    11:00 +40°C° 0 mm 3 mps 683 mmHg 12%
    12:00 +42°C° 0 mm 3 mps 683 mmHg 10%
    13:00 +43°C° 0 mm 3 mps 682 mmHg 9%
    14:00 +43°C° 0 mm 3 mps 681 mmHg 7%
    15:00 +43°C° 0 mm 3 mps 681 mmHg 7%
    16:00 +43°C° 0 mm 3 mps 680 mmHg 7%
    17:00 +42°C° 0 mm 4 mps 680 mmHg 7%
    18:00 +39°C° 0 mm 3 mps 680 mmHg 8%
    19:00 +37°C° 0 mm 3 mps 680 mmHg 10%
    20:00 +34°C° 0 mm 3 mps 680 mmHg 11%
    21:00 +32°C° 0 mm 2 mps 680 mmHg 12%
    22:00 +31°C° 0 mm 2 mps 680 mmHg 12%
    23:00 +30°C° 0 mm 2 mps 681 mmHg 13%

    Tomorrow, 18 November, Sunday

    Time Temperature Precipitation Wind Pressure Humidity
    00:00 +30°C° 0 mm 2 mps 681 mmHg 14%
    01:00 +29°C° 0 mm 2 mps 680 mmHg 15%
    02:00 +28°C° 0 mm 1 mps 680 mmHg 15%
    03:00 +27°C° 0 mm 1 mps 680 mmHg 16%
    04:00 +27°C° 0 mm 1 mps 680 mmHg 17%
    05:00 +26°C° 0 mm 1 mps 679 mmHg 18%
    06:00 +28°C° 0 mm 2 mps 680 mmHg 17%
    07:00 +30°C° 0 mm 2 mps 681 mmHg 16%
    08:00 +32°C° 0 mm 2 mps 682 mmHg 15%
    09:00 +37°C° 0 mm 2 mps 682 mmHg 13%
    10:00 +40°C° 0 mm 1 mps 682 mmHg 11%
    11:00 +43°C° 0 mm 1 mps 683 mmHg 9%
    12:00 +43°C° 0 mm 1 mps 682 mmHg 8%
    13:00 +43°C° 0 mm 2 mps 681 mmHg 7%
    14:00 +45°C° 0 mm 2 mps 680 mmHg 6%
    15:00 +44°C° 0 mm 3 mps 680 mmHg 6%
    16:00 +44°C° 0 mm 3 mps 679 mmHg 6%
    17:00 +43°C° 0 mm 3 mps 679 mmHg 6%
    18:00 +40°C° 0 mm 3 mps 679 mmHg 8%
    19:00 +39°C° 0 mm 3 mps 679 mmHg 9%
    20:00 +37°C° 0 mm 2 mps 679 mmHg 10%
    21:00 +36°C° 0 mm 2 mps 679 mmHg 11%
    22:00 +35°C° 0 mm 2 mps 680 mmHg 13%
    23:00 +34°C° 0 mm 2 mps 680 mmHg 14%

    Day after tomorrow, 19 November, Monday

    Time Temperature Precipitation Wind Pressure Humidity
    00:00 +32°C° 0 mm 2 mps 680 mmHg 15%
    01:00 +31°C° 0 mm 2 mps 679 mmHg 17%
    02:00 +30°C° 0 mm 2 mps 679 mmHg 19%
    03:00 +29°C° 0 mm 2 mps 679 mmHg 21%
    04:00 +29°C° 0 mm 2 mps 679 mmHg 24%
    05:00 +28°C° 0 mm 3 mps 679 mmHg 26%
    06:00 +30°C° 0 mm 3 mps 680 mmHg 25%
    07:00 +33°C° 0 mm 3 mps 681 mmHg 23%
    08:00 +35°C° 0 mm 4 mps 682 mmHg 22%
    09:00 +36°C° 0 mm 4 mps 682 mmHg 20%
    10:00 +38°C° 0 mm 4 mps 682 mmHg 18%
    11:00 +41°C° 0 mm 4 mps 683 mmHg 16%
    12:00 +42°C° 0 mm 4 mps 682 mmHg 15%
    13:00 +43°C° 0 mm 3 mps 681 mmHg 13%
    14:00 +43°C° 0 mm 3 mps 680 mmHg 12%
    15:00 +42°C° 0 mm 3 mps 680 mmHg 13%
    16:00 +42°C° 0 mm 3 mps 679 mmHg 14%
    17:00 +40°C° 0 mm 3 mps 679 mmHg 15%
    18:00 +38°C° 0 mm 3 mps 679 mmHg 17%
    19:00 +37°C° 0 mm 3 mps 679 mmHg 19%
    20:00 +35°C° 0 mm 2 mps 679 mmHg 21%
    21:00 +35°C° 0 mm 2 mps 679 mmHg 22%
    22:00 +34°C° 0 mm 2 mps 680 mmHg 24%
    23:00 +32°C° 0 mm 2 mps 680 mmHg 26%

    20 November, Tuesday

    Time Temperature Precipitation Wind Pressure Humidity
    00:00 +31°C° 0 mm 2 mps 679 mmHg 27%
    01:00 +31°C° 0 mm 2 mps 679 mmHg 28%
    02:00 +30°C° 0 mm 2 mps 678 mmHg 29%
    03:00 +30°C° 0 mm 2 mps 678 mmHg 30%
    04:00 +29°C° 0 mm 2 mps 678 mmHg 31%
    05:00 +28°C° 0 mm 2 mps 678 mmHg 32%
    06:00 +31°C° 0 mm 3 mps 679 mmHg 28%
    07:00 +34°C° 0 mm 4 mps 680 mmHg 25%
    08:00 +36°C° 0 mm 5 mps 681 mmHg 22%
    09:00 +38°C° 0 mm 4 mps 681 mmHg 19%
    10:00 +41°C° 0 mm 4 mps 681 mmHg 17%
    11:00 +43°C° 0 mm 4 mps 681 mmHg 14%
    12:00 +43°C° 0 mm 4 mps 680 mmHg 14%
    13:00 +43°C° 0 mm 3 mps 680 mmHg 14%
    14:00 +43°C° 0 mm 3 mps 679 mmHg 14%
    15:00 +43°C° 0 mm 3 mps 679 mmHg 14%
    16:00 +41°C° 0 mm 2 mps 678 mmHg 14%
    17:00 +41°C° 0 mm 2 mps 678 mmHg 14%
    18:00 +40°C° 0.1 mm 2 mps 678 mmHg 15%
    19:00 +37°C° 0.1 mm 1 mps 678 mmHg 17%
    20:00 +35°C° 0.1 mm 1 mps 678 mmHg 19%
    21:00 +34°C° 0.1 mm 1 mps 679 mmHg 21%
    22:00 +34°C° 0.1 mm 1 mps 679 mmHg 22%
    23:00 +33°C° 0.1 mm 1 mps 679 mmHg 23%

    21 November, Wednesday

    Time Temperature Precipitation Wind Pressure Humidity
    00:00 +32°C° 0 mm 1 mps 678 mmHg 24%
    01:00 +32°C° 0 mm 2 mps 678 mmHg 25%
    02:00 +31°C° 0 mm 2 mps 677 mmHg 26%
    03:00 +31°C° 0 mm 2 mps 677 mmHg 26%
    04:00 +30°C° 0 mm 2 mps 677 mmHg 27%
    05:00 +30°C° 0 mm 2 mps 677 mmHg 27%
    06:00 +33°C° 0 mm 3 mps 678 mmHg 25%
    07:00 +34°C° 0 mm 3 mps 679 mmHg 24%
    08:00 +35°C° 0 mm 3 mps 680 mmHg 22%
    09:00 +37°C° 0 mm 3 mps 680 mmHg 20%
    10:00 +39°C° 0 mm 2 mps 680 mmHg 18%
    11:00 +41°C° 0 mm 2 mps 680 mmHg 16%
    12:00 +41°C° 0 mm 1 mps 679 mmHg 15%
    13:00 +42°C° 0 mm 1 mps 679 mmHg 14%
    14:00 +43°C° 0 mm 1 mps 678 mmHg 13%
    15:00 +42°C° 0 mm 1 mps 678 mmHg 14%
    16:00 +41°C° 0 mm 2 mps 678 mmHg 15%
    17:00 +40°C° 0 mm 2 mps 677 mmHg 15%
    18:00 +38°C° 0 mm 2 mps 678 mmHg 18%
    19:00 +37°C° 0 mm 2 mps 678 mmHg 20%
    20:00 +34°C° 0 mm 1 mps 678 mmHg 23%
    21:00 +34°C° 0 mm 2 mps 678 mmHg 25%
    22:00 +32°C° 0 mm 2 mps 678 mmHg 27%
    23:00 +31°C° 0 mm 2 mps 679 mmHg 29%

    22 November, Thursday

    Time Temperature Precipitation Wind Pressure Humidity
    00:00 +31°C° 0 mm 2 mps 678 mmHg 31%
    01:00 +30°C° 0 mm 2 mps 678 mmHg 34%
    02:00 +29°C° 0 mm 3 mps 677 mmHg 36%
    03:00 +28°C° 0 mm 2 mps 677 mmHg 39%
    04:00 +28°C° 0 mm 2 mps 677 mmHg 42%
    05:00 +27°C° 0 mm 2 mps 677 mmHg 45%
    06:00 +28°C° 0 mm 2 mps 678 mmHg 41%
    07:00 +30°C° 0 mm 3 mps 679 mmHg 37%
    08:00 +33°C° 0 mm 3 mps 679 mmHg 33%
    09:00 +36°C° 0 mm 3 mps 680 mmHg 27%
    10:00 +38°C° 0 mm 3 mps 680 mmHg 21%
    11:00 +42°C° 0 mm 3 mps 680 mmHg 15%
    12:00 +41°C° 0 mm 2 mps 679 mmHg 14%
    13:00 +42°C° 0 mm 2 mps 678 mmHg 13%
    14:00 +42°C° 0 mm 1 mps 678 mmHg 12%
    15:00 +42°C° 0 mm 1 mps 677 mmHg 12%
    16:00 +41°C° 0 mm 2 mps 677 mmHg 13%
    17:00 +41°C° 0 mm 2 mps 677 mmHg 14%
    18:00 +39°C° 0 mm 2 mps 677 mmHg 17%
    19:00 +37°C° 0 mm 2 mps 677 mmHg 20%
    20:00 +35°C° 0 mm 3 mps 678 mmHg 24%
    21:00 +34°C° 0.1 mm 3 mps 678 mmHg 27%
    22:00 +33°C° 0.1 mm 3 mps 678 mmHg 30%
    23:00 +31°C° 0.1 mm 3 mps 678 mmHg 33%
    Show more